map of PSC home
PSC - Airport
Location
City:  Pasco, Washington, United States
Name:Tri-Cities Airport
ICAO:KPSC
IATA:PSC
FAA LID:PSC

Details
Type:Airport (Part 139 Class I)
Use:Public/Civil
Latitude:4615'53"N (46.264694)
Longitude:11907'08"W (-119.119027)
Datum:WGS 1984
Elevation:410 ft (125 m)
Variation:14.67E (WMM2015 magnetic declination)
-0.13 annual change
Runways:3
Longest:7711 × 150 ft (2350 × 45.5 m), paved

Time
Time Zone:UTC-8 (DST-7)
Local Time:

Weather
METAR:KPSC 221853Z 31005KT 10SM CLR 14/M02 A3033 RMK AO2 SLP270 T01441022
TAF:KPSC 221740Z 2218/2318 VRB04KT P6SM BKN250
FM222100 32006KT P6SM SCT250
FM231400 36005KT P6SM SKC

Related Locations
Nearby:
Farthest:FTU: 10778 mi / 17346 km
Tolagnaro [Maurillac Airport (Fort Dauphin Airport)], MG

Find:

   beyond  
but within

Other Information
Maps:
Delays:
NOTAMs:
Links:
Sources:

  
flag of United States
flag of Washington
  

Airport Diagram

Airport diagram for PSC

Airport diagram PDF

Sectional Chart

Flight Planning
at skyvector.com

Satellite Image

Google Maps Satellite view

 

Copyright © 2004-2018 Karl L. Swartz. All rights reserved.
The Great Circle Mapper name and logo are trademarks of the Great Circle Mapper.
All other trademarks mentioned herein belong to their respective owners.
Please see credits for attibutions and further copyright information.

  Follow gcmap on Facebook Follow gcmap on Twitter Follow gcmap on Google+ GCmap on LinkedIn

hCard Microformat

Geo Microformat